Regional Weather Roundup
Issued by NWS

Home | Current Version | Previous Version | Graphics & Text | Print | Product List | Glossary On
Versions: 1 2 3 4 5 6 7 8 9 10 11 12 13 14 15 16 17 18 19 20 21 22 23 24 25 26 27 28 29 30 31 32 33 34 35 36 37 38 39 40 41 42 43 44 45 46 47 48 49 50
000
ASUS43 KFSD 291102
RWRSD

WEATHER ROUNDUP FOR SOUTH DAKOTA
NATIONAL WEATHER SERVICE SIOUX FALLS SD
600 AM CDT FRI AUG 29 2014

NOTE: "FAIR" INDICATES FEW OR NO CLOUDS BELOW 12,000 FEET WITH NO
SIGNIFICANT WEATHER AND/OR OBSTRUCTIONS TO VISIBILITY.


SDZ001>005-009-010-012>017-291200-
NORTHWEST AND NORTH CENTRAL SOUTH DAKOTA

CITY           SKY/WX    TMP DP  RH WIND       PRES   REMARKS
BUFFALO          N/A     62  52  69 W18       29.84R
FAITH            N/A     59  58  96 S8        29.84S
MOBRIDGE       FOG       64  64 100 SW3       29.80S VSB 3/4
$$

SDZ012>016-024>037-041>051-057-063-072>074-291200-
SOUTHWEST AND SOUTH CENTRAL SOUTH DAKOTA

CITY           SKY/WX    TMP DP  RH WIND       PRES   REMARKS
RAPID CTY ARPT CLEAR     61  50  67 W7        29.89S
PIERRE         CLOUDY    65  65 100 CALM      29.80S FOG
CUSTER         PTCLDY    50  43  77 NW5       30.05R
ELLSWORTH AFB  CLEAR     59  51  75 W9        29.89S
PHILIP         CLEAR     56  53  90 CALM      29.84R
PINE RIDGE     CLEAR     48  48 100 CALM      29.92R
WINNER         CLOUDY    66  64  93 W8        29.83S
$$

SDZ004>011-016>023-039-040-291200-
NORTHEAST SOUTH DAKOTA

CITY           SKY/WX    TMP DP  RH WIND       PRES   REMARKS
ABERDEEN       CLOUDY    64  64 100 N5        29.79R
WATERTOWN      FOG       66  65  96 N3        29.78F VSB 1
SISSETON         N/A     66  66 100 CALM      29.77S
$$

SDZ017-020-022-023-036>040-048>070-291200-
SOUTHEAST SOUTH DAKOTA

CITY           SKY/WX    TMP DP  RH WIND       PRES   REMARKS
SIOUX FALLS    CLOUDY    70  68  93 S7        29.77S
HURON          CLOUDY    68  67  96 NW3       29.77R FOG
CHAMBERLAIN    CLOUDY    66  65  97 W6        29.81S
MITCHELL       CLOUDY    68  68 100 W5        29.77S FOG
YANKTON        CLOUDY    66  64  94 S3        29.77S
$$

ABBREVIATIONS USED IN REMARKS
   TC - TEMPERATURE IN CELSIUS
  WCI - WIND CHILL INDEX
   HX - HEAT INDEX
  VSB - VISIBILITY




USA.gov is the U.S. government's official web portal to all federal, state and local government web resources and services.